Regional Weather Roundup
Issued by NWS Charleston, WV

Home | Current Version | Previous Version | Graphics & Text | Print | Product List | Glossary On
Versions: 1 2 3 4 5 6 7 8 9 10 11 12 13 14 15 16 17 18 19 20 21 22 23 24 25 26 27
000
ASUS41 KRLX 241510
RWRRLX
West Virginia Regional Weather Roundup
National Weather Service Charleston WV
1100 AM EDT SUN JUL 24 2016

Note: "fair" indicates few or no clouds below 12,000 feet with no
significant weather and/or obstructions to visibility.

WVZ003-241600-
Northern Panhandle of West Virginia

CITY           SKY/WX    TMP DP  RH WIND       PRES   REMARKS
WHEELING         N/A     86  71  60 SW8       30.05R
$$

WVZ009-241600-
Northwest West Virginia

CITY           SKY/WX    TMP DP  RH WIND       PRES   REMARKS
PARKERSBURG      N/A     87  75  67 VRB6      30.07R HX  96
$$

WVZ006-241600-
Western West Virginia

CITY           SKY/WX    TMP DP  RH WIND       PRES   REMARKS
HUNTINGTON       N/A     86  73  65 SW6       30.03S
$$

WVZ015-241600-
West Central West Virginia

CITY           SKY/WX    TMP DP  RH WIND       PRES   REMARKS
CHARLESTON       N/A     87  73  62 CALM      30.04S
$$

WVZ022-031-241600-
North Central West Virginia

CITY           SKY/WX    TMP DP  RH WIND       PRES   REMARKS
CLARKSBURG       N/A     85  73  67 CALM      30.06R
MORGANTOWN       N/A     87  71  58 VRB6      30.06R
$$

WVZ025-035-042-045-241600-
Southern West Virginia

CITY           SKY/WX    TMP DP  RH WIND       PRES   REMARKS
BECKLEY          N/A     84  68  58 SW5       30.14S
LOGAN            N/A     82  73  74 S3        30.08S
BLUEFIELD        N/A     80  68  66 S3        30.18R
LEWISBURG        N/A    N/A N/A N/A MISG        N/A
$$

WVZ047-241600-
Northern Mountains of West Virginia

CITY           SKY/WX    TMP DP  RH WIND       PRES   REMARKS
ELKINS           N/A     83  69  62 CALM      30.11R
$$

WVZ052-241600-
Eastern Panhandle of West Virginia

CITY           SKY/WX    TMP DP  RH WIND       PRES   REMARKS
MARTINSBURG      N/A     88  67  49 SE7       30.01F
PETERSBURG       N/A     87  72  61 CALM      30.04S
$$




USA.gov is the U.S. government's official web portal to all federal, state and local government web resources and services.